Powrót do katalogu

THOR ABLESTAR R/B

AktywnyPO
NORAD 893·ROCKET BODY·🇺🇸 United States

Wystrzelony Oct 6, 1964 z Vandenberg Space Force Base

Loading…

Następne Przeloty (najbliższe 24 godziny)

TLE

ŚwieżeSource: Space-Track

Epoka: Sep 14, 2026, 11:32 UTC

1 00893U 64063A   26257.48092559  .00000005  00000-0 -53595-5 0  9991
2 00893  90.2250  77.2661 0024530 326.3477  61.7094 13.56325894 64086

Śledź THOR ABLESTAR R/B w czasie rzeczywistym z AllMySat

Download on the App Store